FW7314 Weather Reports


time (UTC)temp
C
wind
direction
speed
KPH
gust
KPH
rain 1hr
cm
rain 24hr
cm
rain mn
cm
humidity
%
barometer
mb
20260503200554 28 0.0 0.0 0.00 0.00 0.00 32 1009.6
20260503195835 28 0.0 0.0 0.00 0.00 0.00 36 1009.7
20260503195335 28 0.0 0.0 0.00 0.00 0.00 33 1009.6
20260503194834 28 0.0 0.0 0.00 0.00 0.00 36 1009.7
20260503194556 28 0.0 0.0 0.00 0.00 0.00 36 1009.7
20260503194100 28 0.0 0.0 0.00 0.00 0.00 39 1009.8
20260503193552 27 0.0 0.0 0.00 0.00 0.00 39 1009.8
20260503193051 27 0.0 0.0 0.00 0.00 0.00 37 1009.7
20260503192336 27 0.0 0.0 0.00 0.00 0.00 36 1009.9
20260503191833 27 0.0 0.0 0.00 0.00 0.00 38 1010.0
20260503191334 27 0.0 0.0 0.00 0.00 0.00 36 1010.2
20260503191051 27 0.0 0.0 0.00 0.00 0.00 39 1010.2
20260503191042 28 0.0 0.0 0.00 0.00 0.00 38 1010.2
20260503185835 27 0.0 0.0 0.00 0.00 0.00 37 1010.2
20260503185335 27 0.0 0.0 0.00 0.00 0.00 39 1010.4
20260503184835 27 0.0 0.0 0.00 0.00 0.00 40 1010.3
20260503184335 27 0.0 0.0 0.00 0.00 0.00 40 1010.4
20260503183836 27 0.0 0.0 0.00 0.00 0.00 38 1010.5
20260503183335 26 0.0 0.0 0.00 0.00 0.00 39 1010.5
20260503182835 26 0.0 0.0 0.00 0.00 0.00 39 1010.6
20260503182334 26 0.0 0.0 0.00 0.00 0.00 41 1010.7
20260503181835 27 0.0 0.0 0.00 0.00 0.00 41 1010.7
20260503181557 27 0.0 0.0 0.00 0.00 0.00 42 1010.8
20260503180834 27 0.0 0.0 0.00 0.00 0.00 43 1010.7
20260503180334 27 0.0 0.0 0.00 0.00 0.00 43 1010.9
20260503175834 27 0.0 0.0 0.00 0.00 0.00 40 1011.0
20260503175336 27 0.0 0.0 0.00 0.00 0.00 40 1010.9
20260503174834 27 0.0 0.0 0.00 0.00 0.00 41 1011.0
20260503174334 26 0.0 0.0 0.00 0.00 0.00 44 1011.0
20260503173836 26 0.0 0.0 0.00 0.00 0.00 44 1011.1
20260503173336 26 0.0 0.0 0.00 0.00 0.00 47 1011.1
20260503172835 26 0.0 0.0 0.00 0.00 0.00 44 1011.2
20260503172334 25 0.0 0.0 0.00 0.00 0.00 46 1011.2
20260503171835 25 0.0 0.0 0.00 0.00 0.00 48 1011.0
20260503171335 25 0.0 0.0 0.00 0.00 0.00 47 1011.2
20260503170836 24 0.0 0.0 0.00 0.00 0.00 50 1011.2
20260503170335 24 0.0 0.0 0.00 0.00 0.00 49 1011.2
20260503150834 16 0.0 0.0 0.00 0.00 0.00 89 1011.7
20260503150335 15 0.0 0.0 0.00 0.00 0.00 90 1011.6
20260503131335 11 0.0 0.0 0.00 0.00 0.00 91 1011.2
20260503130834 11 0.0 0.0 0.00 0.00 0.00 92 1011.2
20260503130334 11 0.0 0.0 0.00 0.00 0.00 91 1011.1
20260503110556 11 0.0 0.0 0.00 0.00 0.00 93 1011.7
20260503090323 12 0.0 0.0 0.00 0.00 0.00 88 1011.9
20260503081324 13 0.0 0.0 0.00 0.00 0.00 91 1012.0
20260503080823 13 0.0 0.0 0.00 0.00 0.00 86 1012.1
20260503080322 13 0.0 0.0 0.00 0.00 0.00 86 1012.1
20260503072824 13 0.0 0.0 0.00 0.00 0.00 86 1012.0
20260503072322 13 0.0 0.0 0.00 0.00 0.00 88 1012.1
20260503071822 14 0.0 0.0 0.00 0.00 0.00 86 1012.1
20260503071322 14 0.0 0.0 0.00 0.00 0.00 85 1012.2
20260503071044 14 0.0 0.0 0.00 0.00 0.00 84 1012.0
20260503070323 14 0.0 0.0 0.00 0.00 0.00 84 1012.1
20260503060305 15 0.0 0.0 0.00 0.00 0.00 82 1012.1
20260503054805 15 0.0 0.0 0.00 0.00 0.00 84 1012.1
20260503054305 15 0.0 0.0 0.00 0.00 0.00 84 1011.9
20260503053804 15 0.0 0.0 0.00 0.00 0.00 80 1012.0
20260503053305 15 0.0 0.0 0.00 0.00 0.00 82 1011.9
20260503052804 15 0.0 0.0 0.00 0.00 0.00 83 1012.1
20260503052307 16 0.0 0.0 0.00 0.00 0.00 82 1012.0
20260503051805 16 0.0 0.0 0.00 0.00 0.00 79 1012.0
20260503051305 16 0.0 0.0 0.00 0.00 0.00 81 1011.9
20260503050805 16 0.0 0.0 0.00 0.00 0.00 80 1012.1
20260503050530 16 0.0 0.0 0.00 0.00 0.00 81 1012.3
20260503050032 16 0.0 0.0 0.00 0.00 0.00 77 1012.7
20260503045305 16 0.0 0.0 0.00 0.00 0.00 77 1012.3
20260503044805 16 0.0 0.0 0.00 0.00 0.00 77 1012.3
20260503044305 16 0.0 0.0 0.00 0.00 0.00 79 1012.0
20260503043805 16 0.0 0.0 0.00 0.00 0.00 78 1012.2
20260503043305 16 0.0 0.0 0.00 0.00 0.00 76 1012.0
20260503042805 16 0.0 0.0 0.00 0.00 0.00 78 1012.0
20260503042525 16 0.0 0.0 0.00 0.00 0.00 76 1012.1
20260503041807 16 0.0 0.0 0.00 0.00 0.00 75 1012.4
20260503041306 17 0.0 0.0 0.00 0.00 0.00 75 1012.2
20260503040805 17 0.0 0.0 0.00 0.00 0.00 75 1012.3
20260503040305 17 0.0 0.0 0.00 0.00 0.00 75 1012.3
20260503035804 17 0.0 0.0 0.00 0.00 0.00 73 1012.3
20260503035306 17 0.0 0.0 0.00 0.00 0.00 74 1012.1
20260503034806 17 0.0 0.0 0.00 0.00 0.00 76 1012.0
20260503034307 17 0.0 0.0 0.00 0.00 0.00 75 1011.9
20260503033759 17 0.0 0.0 0.00 0.00 0.00 72 1012.0
20260503033517 17 0.0 0.0 0.00 0.00 0.00 73 1011.9
20260503032759 17 0.0 0.0 0.00 0.00 0.00 73 1011.8
20260503032258 17 0.0 0.0 0.00 0.00 0.00 71 1011.8
20260503031758 18 0.0 0.0 0.00 0.00 0.00 73 1011.6
20260503031259 18 0.0 0.0 0.00 0.00 0.00 71 1011.6
20260503030759 18 0.0 0.0 0.00 0.00 0.00 70 1011.8
20260503030259 18 0.0 0.0 0.00 0.00 0.00 70 1011.9
20260503030041 18 0.0 0.0 0.00 0.00 0.00 70 1011.8
20260503025300 18 0.0 0.0 0.00 0.00 0.00 69 1011.7
20260503024758 18 0.0 0.0 0.00 0.00 0.00 70 1011.7
20260503024259 18 0.0 0.0 0.00 0.00 0.00 68 1011.7
20260503023759 18 0.0 0.0 0.00 0.00 0.00 69 1011.9
20260503023259 19 0.0 0.0 0.00 0.00 0.00 68 1011.8
20260503022759 19 0.0 0.0 0.00 0.00 0.00 67 1011.8
20260503022247 20 0.0 0.0 0.00 0.00 0.00 67 1011.9
20260503021747 20 0.0 0.0 0.00 0.00 0.00 67 1011.9
20260503021247 20 0.0 0.0 0.00 0.00 0.00 66 1011.8
20260503021016 20 0.0 0.0 0.00 0.00 0.00 65 1011.9
20260503020246 20 0.0 0.0 0.00 0.00 0.00 63 1011.7
20260503020008 21 0.0 0.0 0.00 0.00 0.00 63 1011.4
20260503015248 21 0.0 0.0 0.00 0.00 0.00 63 1011.3
20260503014747 21 0.0 0.0 0.00 0.00 0.00 62 1011.0
20260503014247 21 0.0 0.0 0.00 0.00 0.00 61 1011.2
20260503013749 21 0.0 0.0 0.00 0.00 0.00 61 1011.0
20260503013246 21 0.0 0.0 0.00 0.00 0.00 62 1010.9
20260503012747 21 0.0 0.0 0.00 0.00 0.00 60 1010.9
20260503012505 21 0.0 0.0 0.00 0.00 0.00 60 1010.9
20260503011734 21 0.0 0.0 0.00 0.00 0.00 60 1010.9
20260503011235 21 0.0 0.0 0.00 0.00 0.00 59 1010.9
20260503010734 22 0.0 0.0 0.00 0.00 0.00 59 1011.2
20260503010235 22 0.0 0.0 0.00 0.00 0.00 60 1010.9
20260503005735 22 0.0 0.0 0.00 0.00 0.00 60 1010.9
20260503005233 22 0.0 0.0 0.00 0.00 0.00 58 1011.1
20260503004733 22 0.0 0.0 0.00 0.00 0.00 59 1010.9
20260503004233 22 0.0 0.0 0.00 0.00 0.00 59 1011.1
20260503003733 21 0.0 0.0 0.00 0.00 0.00 58 1010.8
20260503003233 22 0.0 0.0 0.00 0.00 0.00 56 1010.8
20260503002733 22 0.0 0.0 0.00 0.00 0.00 58 1011.0
20260503002233 22 0.0 0.0 0.00 0.00 0.00 58 1010.8
20260503001734 22 0.0 0.0 0.00 0.00 0.00 55 1011.1
20260503001233 22 0.0 0.0 0.00 0.00 0.00 58 1010.9
20260503000733 22 0.0 0.0 0.00 0.00 0.00 56 1011.0
20260503000247 22 0.0 0.0 0.00 0.00 0.00 57 1011.0
20260502235733 22 0.0 0.0 0.00 0.00 0.00 54 1011.1
20260502235233 22 0.0 0.0 0.00 0.00 0.00 55 1011.2
20260502234733 22 0.0 0.0 0.00 0.00 0.00 55 1011.2
20260502234234 23 0.0 0.0 0.00 0.00 0.00 51 1011.2
20260502233733 24 0.0 0.0 0.00 0.00 0.00 53 1011.4
20260502233233 22 0.0 0.0 0.00 0.00 0.00 58 1011.4
20260502232747 21 0.0 0.0 0.00 0.00 0.00 59 1011.4
20260502232232 21 0.0 0.0 0.00 0.00 0.00 60 1011.5
20260502231733 21 0.0 0.0 0.00 0.00 0.00 59 1011.7
20260502231235 21 0.0 0.0 0.00 0.00 0.00 59 1011.5
20260502230733 21 0.0 0.0 0.00 0.00 0.00 59 1011.5
20260502230657 21 0.0 0.0 0.00 0.00 0.00 59 1011.9
20260502230430 21 0.0 0.0 0.00 0.00 0.00 58 1011.7
20260502225234 20 0.0 0.0 0.00 0.00 0.00 61 1011.8
20260502224747 20 0.0 0.0 0.00 0.00 0.00 59 1011.9
20260502224233 20 0.0 0.0 0.00 0.00 0.00 61 1012.0
20260502223733 20 0.0 0.0 0.00 0.00 0.00 60 1012.2
20260502223714 20 0.0 0.0 0.00 0.00 0.00 62 1012.2
20260502222723 20 0.0 0.0 0.00 0.00 0.00 62 1012.3
20260502222223 19 0.0 0.0 0.00 0.00 0.00 63 1012.4
20260502221723 19 0.0 0.0 0.00 0.00 0.00 64 1012.5
20260502221450 18 0.0 0.0 0.00 0.00 0.00 63 1012.5
20260502220723 18 0.0 0.0 0.00 0.00 0.00 64 1012.5
20260502220222 18 0.0 0.0 0.00 0.00 0.00 63 1012.9
20260502215723 18 0.0 0.0 0.00 0.00 0.00 62 1012.7
20260502215222 18 0.0 0.0 0.00 0.00 0.00 63 1012.7
20260502214723 18 0.0 0.0 0.00 0.00 0.00 63 1013.0
20260502214448 18 0.0 0.0 0.00 0.00 0.00 66 1013.0
20260502213710 18 0.0 0.0 0.00 0.00 0.00 65 1013.2
20260502213212 17 0.0 0.0 0.00 0.00 0.00 66 1013.1
20260502212710 17 0.0 0.0 0.00 0.00 0.00 68 1013.1
20260502212212 17 0.0 0.0 0.00 0.00 0.00 66 1013.2
20260502211705 17 0.0 0.0 0.00 0.00 0.00 66 1013.3
20260502211205 17 0.0 0.0 0.00 0.00 0.00 67 1013.5
20260502210707 17 0.0 0.0 0.00 0.00 0.00 68 1013.7
20260502210205 17 0.0 0.0 0.00 0.00 0.00 69 1013.6
20260502205705 17 0.0 0.0 0.00 0.00 0.00 68 1013.6
20260502205205 17 0.0 0.0 0.00 0.00 0.00 68 1013.5
20260502204704 16 0.0 0.0 0.00 0.00 0.00 68 1013.7
20260502204205 16 0.0 0.0 0.00 0.00 0.00 70 1013.8
20260502203705 16 0.0 0.0 0.00 0.00 0.00 69 1014.1
20260502203205 16 0.0 0.0 0.00 0.00 0.00 70 1014.2
20260502202704 16 0.0 0.0 0.00 0.00 0.00 69 1014.2
20260502202205 16 0.0 0.0 0.00 0.00 0.00 70 1014.2
20260502201928 16 0.0 0.0 0.00 0.00 0.00 70 1014.1
20260502201205 16 0.0 0.0 0.00 0.00 0.00 71 1014.2